Hourly Weather Rudaki

Today, 10 April, Saturday

Time Temperature Precipitation Wind Pressure Humidity
00:00 +2°C° 0 mm 6 mps 748 mmHg 64%
01:00 +2°C° 0 mm 6 mps 748 mmHg 65%
02:00 +2°C° 0 mm 6 mps 748 mmHg 66%
03:00 +2°C° 0 mm 6 mps 748 mmHg 68%
04:00 +1°C° 0 mm 5 mps 748 mmHg 70%
05:00 +1°C° 0 mm 5 mps 748 mmHg 73%
06:00 +2°C° 0 mm 5 mps 748 mmHg 72%
07:00 +2°C° 0 mm 5 mps 748 mmHg 72%
08:00 +3°C° 0 mm 5 mps 748 mmHg 71%
09:00 +4°C° 0 mm 6 mps 748 mmHg 67%
10:00 +7°C° 0 mm 6 mps 748 mmHg 63%
11:00 +8°C° 0 mm 7 mps 748 mmHg 58%
12:00 +9°C° 0.1 mm 7 mps 748 mmHg 58%
13:00 +9°C° 0.1 mm 6 mps 748 mmHg 57%
14:00 +10°C° 0.1 mm 6 mps 748 mmHg 56%
15:00 +9°C° 0.2 mm 6 mps 748 mmHg 60%
16:00 +9°C° 0.2 mm 5 mps 749 mmHg 65%
17:00 +8°C° 0.2 mm 5 mps 749 mmHg 70%
18:00 +7°C° 0.1 mm 4 mps 750 mmHg 75%
19:00 +7°C° 0.1 mm 2 mps 750 mmHg 80%
20:00 +7°C° 0.1 mm 1 mps 751 mmHg 85%
21:00 +7°C° 0.2 mm 1 mps 751 mmHg 86%
22:00 +7°C° 0.2 mm 1 mps 752 mmHg 87%
23:00 +7°C° 0.2 mm 1 mps 752 mmHg 88%

Tomorrow, 11 April, Sunday

Time Temperature Precipitation Wind Pressure Humidity
00:00 +6°C° 0.2 mm 1 mps 752 mmHg 89%
01:00 +6°C° 0.2 mm 1 mps 752 mmHg 91%
02:00 +6°C° 0.2 mm 1 mps 753 mmHg 92%
03:00 +6°C° 0.1 mm 1 mps 753 mmHg 93%
04:00 +6°C° 0.1 mm 1 mps 753 mmHg 93%
05:00 +6°C° 0.1 mm 1 mps 753 mmHg 94%
06:00 +6°C° 0 mm 1 mps 754 mmHg 93%
07:00 +5°C° 0 mm 2 mps 754 mmHg 92%
08:00 +5°C° 0 mm 2 mps 754 mmHg 92%
09:00 +6°C° 0 mm 2 mps 755 mmHg 89%
10:00 +7°C° 0 mm 2 mps 755 mmHg 86%
11:00 +8°C° 0 mm 2 mps 755 mmHg 83%
12:00 +9°C° 0 mm 2 mps 755 mmHg 81%
13:00 +9°C° 0 mm 2 mps 755 mmHg 80%
14:00 +10°C° 0 mm 2 mps 756 mmHg 78%
15:00 +10°C° 0 mm 2 mps 755 mmHg 76%
16:00 +12°C° 0 mm 2 mps 755 mmHg 74%
17:00 +13°C° 0 mm 2 mps 755 mmHg 72%
18:00 +12°C° 0 mm 2 mps 755 mmHg 76%
19:00 +10°C° 0 mm 2 mps 755 mmHg 81%
20:00 +10°C° 0 mm 3 mps 755 mmHg 86%
21:00 +9°C° 0 mm 3 mps 756 mmHg 86%
22:00 +9°C° 0 mm 3 mps 756 mmHg 85%
23:00 +8°C° 0 mm 3 mps 756 mmHg 85%

Day after tomorrow, 12 April, Monday

Time Temperature Precipitation Wind Pressure Humidity
00:00 +8°C° 0 mm 3 mps 756 mmHg 84%
01:00 +7°C° 0 mm 3 mps 756 mmHg 83%
02:00 +7°C° 0 mm 3 mps 756 mmHg 82%
03:00 +5°C° 0 mm 3 mps 756 mmHg 82%
04:00 +5°C° 0 mm 3 mps 756 mmHg 81%
05:00 +4°C° 0 mm 3 mps 756 mmHg 81%
06:00 +7°C° 0 mm 3 mps 756 mmHg 76%
07:00 +7°C° 0 mm 4 mps 756 mmHg 70%
08:00 +8°C° 0 mm 4 mps 756 mmHg 65%
09:00 +9°C° 0 mm 5 mps 756 mmHg 58%
10:00 +12°C° 0 mm 5 mps 756 mmHg 52%
11:00 +13°C° 0 mm 6 mps 755 mmHg 46%
12:00 +14°C° 0 mm 6 mps 755 mmHg 43%
13:00 +15°C° 0 mm 6 mps 754 mmHg 41%
14:00 +15°C° 0 mm 6 mps 754 mmHg 39%
15:00 +15°C° 0 mm 5 mps 754 mmHg 41%
16:00 +15°C° 0 mm 5 mps 753 mmHg 43%
17:00 +15°C° 0 mm 4 mps 753 mmHg 45%
18:00 +13°C° 0 mm 4 mps 753 mmHg 52%
19:00 +11°C° 0 mm 3 mps 753 mmHg 59%
20:00 +10°C° 0 mm 3 mps 753 mmHg 66%
21:00 +9°C° 0 mm 3 mps 752 mmHg 68%
22:00 +9°C° 0 mm 3 mps 752 mmHg 70%
23:00 +8°C° 0 mm 2 mps 752 mmHg 72%

13 April, Tuesday

Time Temperature Precipitation Wind Pressure Humidity
00:00 +7°C° 0 mm 2 mps 752 mmHg 73%
01:00 +7°C° 0 mm 2 mps 752 mmHg 75%
02:00 +6°C° 0 mm 2 mps 752 mmHg 76%
03:00 +6°C° 0 mm 2 mps 752 mmHg 76%
04:00 +6°C° 0 mm 2 mps 752 mmHg 77%
05:00 +5°C° 0 mm 2 mps 752 mmHg 77%
06:00 +7°C° 0 mm 2 mps 752 mmHg 73%
07:00 +8°C° 0 mm 2 mps 752 mmHg 68%
08:00 +9°C° 0 mm 2 mps 752 mmHg 64%
09:00 +11°C° 0 mm 3 mps 751 mmHg 58%
10:00 +13°C° 0 mm 3 mps 751 mmHg 53%
11:00 +14°C° 0 mm 3 mps 751 mmHg 47%
12:00 +16°C° 0 mm 3 mps 751 mmHg 44%
13:00 +17°C° 0 mm 3 mps 751 mmHg 42%
14:00 +18°C° 0 mm 2 mps 751 mmHg 39%
15:00 +18°C° 0 mm 2 mps 750 mmHg 41%
16:00 +17°C° 0 mm 2 mps 750 mmHg 42%
17:00 +17°C° 0 mm 2 mps 750 mmHg 44%
18:00 +16°C° 0 mm 1 mps 750 mmHg 49%
19:00 +14°C° 0 mm 1 mps 750 mmHg 54%
20:00 +13°C° 0 mm 1 mps 750 mmHg 59%
21:00 +12°C° 0 mm 1 mps 750 mmHg 64%
22:00 +11°C° 0 mm 1 mps 749 mmHg 70%
23:00 +10°C° 0 mm 1 mps 749 mmHg 75%

14 April, Wednesday

Time Temperature Precipitation Wind Pressure Humidity
00:00 +10°C° 0 mm 1 mps 749 mmHg 79%
01:00 +10°C° 0 mm 1 mps 749 mmHg 83%
02:00 +9°C° 0 mm 1 mps 748 mmHg 87%
03:00 +9°C° 0 mm 1 mps 748 mmHg 88%
04:00 +8°C° 0 mm 0 mps 748 mmHg 90%
05:00 +8°C° 0 mm 0 mps 748 mmHg 91%
06:00 +9°C° 0 mm 0 mps 747 mmHg 88%
07:00 +11°C° 0 mm 1 mps 747 mmHg 85%
08:00 +12°C° 0 mm 1 mps 747 mmHg 82%
09:00 +13°C° 0.2 mm 1 mps 747 mmHg 80%
10:00 +14°C° 0.2 mm 1 mps 747 mmHg 77%
11:00 +15°C° 0.2 mm 2 mps 747 mmHg 74%
12:00 +14°C° 0.6 mm 2 mps 746 mmHg 79%
13:00 +13°C° 0.6 mm 2 mps 746 mmHg 84%
14:00 +13°C° 0.6 mm 2 mps 746 mmHg 89%
15:00 +12°C° 0.4 mm 2 mps 746 mmHg 90%
16:00 +12°C° 0.4 mm 2 mps 746 mmHg 91%
17:00 +12°C° 0.4 mm 1 mps 746 mmHg 92%
18:00 +12°C° 0.5 mm 1 mps 746 mmHg 92%
19:00 +12°C° 0.5 mm 1 mps 746 mmHg 92%
20:00 +11°C° 0.5 mm 1 mps 746 mmHg 92%
21:00 +11°C° 0.2 mm 1 mps 746 mmHg 92%
22:00 +10°C° 0.2 mm 1 mps 746 mmHg 92%
23:00 +10°C° 0.2 mm 1 mps 746 mmHg 92%

15 April, Thursday

Time Temperature Precipitation Wind Pressure Humidity
00:00 +9°C° 0.3 mm 2 mps 746 mmHg 93%
01:00 +8°C° 0.3 mm 2 mps 746 mmHg 94%
02:00 +8°C° 0.3 mm 3 mps 746 mmHg 95%
03:00 +7°C° 0.5 mm 3 mps 746 mmHg 95%
04:00 +7°C° 0.5 mm 3 mps 746 mmHg 95%
05:00 +6°C° 0.5 mm 4 mps 746 mmHg 96%
06:00 +6°C° 0.2 mm 4 mps 746 mmHg 95%
07:00 +6°C° 0.2 mm 4 mps 747 mmHg 94%
08:00 +6°C° 0.2 mm 4 mps 747 mmHg 93%
09:00 +7°C° 0.1 mm 4 mps 747 mmHg 90%
10:00 +7°C° 0.1 mm 4 mps 747 mmHg 87%
11:00 +9°C° 0.1 mm 3 mps 747 mmHg 84%
12:00 +8°C° 0 mm 4 mps 747 mmHg 83%
13:00 +8°C° 0 mm 4 mps 747 mmHg 82%
14:00 +8°C° 0 mm 5 mps 747 mmHg 81%
15:00 +7°C° 0 mm 5 mps 748 mmHg 84%
16:00 +6°C° 0 mm 5 mps 748 mmHg 86%
17:00 +4°C° 0 mm 6 mps 748 mmHg 89%
18:00 +3°C° 0 mm 6 mps 748 mmHg 91%
19:00 +3°C° 0 mm 6 mps 748 mmHg 93%
20:00 +2°C° 0 mm 6 mps 748 mmHg 95%
21:00 +2°C° 0 mm 6 mps 748 mmHg 95%
22:00 +2°C° 0 mm 6 mps 747 mmHg 95%
23:00 +2°C° 0 mm 6 mps 747 mmHg 95%
Show more